Lapse_Rate
2.3 2.6 2.2 1.2 0.7 0.4 0.2 -0.0 1.3 0.8 2.0 2.7 2.7 2.9 2.7 3.1 2.9 2.4 2.7 2.2 1.1 0.7
2.1 3.3 2.4 1.6 0.9 0.5 0.3 0.5 0.9 0.5 1.4 0.8 1.5 2.1 2.1 2.9 2.6 2.0 2.1 1.4 0.2 1.0
1.4 1.5 1.7 2.2 0.6 0.2 -0.5 -0.1 0.0 0.7 1.2 1.3 1.0 1.0 1.7 2.0 0.9 1.5 -0.7 -1.2 -0.6 -1.3
2.4 1.9 2.9 2.0 0.1 0.1 -0.2 -1.0 -0.9 0.4 1.0 1.5 1.2 1.0 1.4 0.9 -0.5 0.7 -0.9 -1.4 -1.0 -2.3
3.1 3.0 2.8 1.1 -0.3 0.0 -0.7 -1.0 -0.7 0.2 1.1 1.3 1.6 1.4 1.5 0.0 0.2 0.3 -0.3 -0.8 -1.5 -2.5
4.0 4.3 2.8 0.7 0.2 -0.5 -0.6 -0.4 -0.5 0.2 1.2 0.9 1.2 1.2 1.3 0.5 0.1 0.2 -0.5 -0.8 -1.6 -2.3
3.1 2.7 2.0 1.1 1.7 -0.1 -0.4 0.2 0.3 0.4 1.2 2.0 1.8 1.1 1.0 0.0 -0.3 -0.9 -0.6 -0.4 -0.9 -1.2
1.9 2.0 2.7 2.7 2.9 1.1 1.1 0.8 1.3 1.2 1.5 1.9 -0.2 -1.3 -2.0 -1.2 -1.4 -0.7 -1.2 -1.1 -1.5 -1.7
3.0 3.3 3.3 2.8 2.5 2.2 1.5 1.7 1.9 1.8 1.8 -0.9 -1.2 -5.0 -5.1 -2.9 -2.1 -1.6 -1.4 -2.0 -2.5 -2.7
4.1 3.4 3.5 3.2 2.8 2.6 2.2 1.9 2.0 1.4 -0.4 -1.1 -1.3 -6.1 -6.4 -5.5 -2.3 -2.3 -1.4 -3.2 -3.7 -3.6
3.7 4.1 3.9 3.2 3.0 2.9 2.1 1.3 1.6 0.9 -0.2 -1.1 -2.8 -6.0 -5.4 -5.5 -2.6 -2.0 -3.2 -4.5 -3.0 -3.5
1.9 2.1 2.5 3.1 1.8 2.7 2.6 2.2 1.9 1.1 0.9 0.3 -4.2 -5.9 -4.4 -3.8 -2.7 -3.3 -3.5 -3.6 -3.2 -4.5
1.5 2.1 2.5 2.1 2.2 1.8 1.6 1.2 0.3 0.0 0.4 -1.3 -1.7 -3.6 -3.6 -2.4 -2.9 -4.4 -4.7 -4.5 -4.0 -3.1
2.0 2.2 1.2 0.3 1.0 1.2 0.4 -0.3 -0.8 -0.8 -1.7 -1.4 -2.2 -3.6 -4.2 -3.8 -2.6 -3.4 -4.5 -4.3 -4.1 -3.8
Wind_Speed
23 15 14 16 12 13 13 15 17 17 16 16 13 12 11 9 9 9 9 10 6 4
21 20 18 19 16 13 14 12 15 16 17 16 14 15 14 11 11 10 8 8 7 6
23 24 21 16 18 18 16 14 14 15 16 14 15 15 14 11 7 10 4 4 7 3
22 21 18 17 17 18 15 14 16 17 16 15 15 15 14 12 11 11 9 7 9 7
22 19 19 18 19 17 18 16 17 15 16 15 14 14 16 14 13 14 12 11 10 9
19 18 21 22 19 17 16 16 15 15 16 17 17 15 14 14 14 12 13 15 13 13
20 20 21 21 18 17 17 15 15 16 14 14 13 12 11 11 13 14 13 13 9 12
20 19 17 16 17 15 14 14 15 14 13 13 13 11 15 13 14 15 14 12 13 9
17 15 16 15 15 14 14 14 14 15 14 14 11 16 16 17 14 14 14 14 9 10
12 14 14 13 13 14 15 13 14 14 15 16 13 19 21 21 15 14 14 16 13 10
10 12 12 13 14 14 12 14 12 14 14 13 11 23 23 22 16 14 16 19 17 15
8 10 10 12 12 10 10 9 11 11 12 12 9 18 18 17 13 12 12 11 12 15
4 5 8 9 10 8 9 10 8 9 10 13 14 20 23 17 10 12 10 10 10 15
5 6 6 6 5 7 7 7 8 9 8 10 14 17 23 24 14 13 12 11 10 8
Wind_Direction
200 196 198 196 193 197 200 203 201 199 199 202 198 195 192 195 195 192 201 191 180 154
199 200 199 198 194 200 205 205 201 195 200 195 192 192 190 199 193 184 192 193 166 192
199 201 201 192 196 198 200 195 194 195 196 194 191 186 187 193 174 171 158 138 142 144
202 201 197 197 198 201 193 188 188 193 192 193 192 188 185 182 164 165 145 143 173 146
202 198 194 200 200 195 196 189 186 188 191 189 190 189 187 179 175 164 156 151 151 146
201 196 197 200 198 193 191 191 183 185 189 189 188 187 188 182 172 165 155 157 161 160
195 196 199 201 196 191 190 184 182 187 187 186 180 180 183 164 155 149 150 146 157 169
196 197 195 194 194 190 186 186 183 174 181 177 172 171 167 164 167 156 151 151 154 159
188 188 191 188 186 181 181 178 175 181 175 173 178 168 160 156 163 155 154 140 142 155
180 178 177 177 173 176 181 178 183 178 174 181 181 167 159 159 162 163 166 151 157 158
171 170 170 172 177 177 176 182 174 178 177 175 176 164 168 171 163 166 168 155 164 159
148 152 161 173 173 165 160 169 169 169 167 169 159 164 162 164 153 151 147 153 160 149
75 138 166 164 162 151 159 163 158 157 165 160 156 163 160 151 144 136 139 139 141 150
124 112 104 96 113 127 129 134 143 145 141 152 161 167 166 160 158 160 154 154 155 151